Location: Ariel
(45.9570°N, 122.5700°W)
Time: 00:07:27
(UTC-07:00)

Transit 4A - Pass Details

Date: 29 July 2019
Orbit: 864 x 981 km, 66.8° (Epoch: 25 August)

Event Time Altitude Azimuth Distance (km) Brightness Sun altitude
Exits shadow 00:34:27 52° 141° (SE) 1,206 8.1 -24.5°
Maximum altitude 00:35:13 55° 115° (ESE) 1,168 8.1 -24.6°
Drops below altitude 10° 00:41:27 10° 40° (NE) 2,740 10.8 -24.8°
Sets 00:44:04 0° 36° (NE) 3,687 11.7 -24.8°
